| time (UTC) | temp F | wind direction | speed knots | gust knots | rain 1hr in | rain 24hr in | rain mn in | humidity % | barometer mb |
| 20260505121719 | 61 | 239 | 8.7 | 11.3 | 0.00 | 0.00 | 0.00 | 63 | 1021.1 |
| 20260505121219 | 62 | 233 | 7.8 | 10.4 | 0.00 | 0.00 | 0.00 | 64 | 1021.0 |
| 20260505120719 | 62 | 235 | 8.7 | 10.4 | 0.00 | 0.00 | 0.00 | 64 | 1020.9 |
| 20260505120219 | 62 | 231 | 9.6 | 12.2 | 0.00 | 0.00 | 0.00 | 64 | 1021.2 |
| 20260505115719 | 62 | 235 | 10.4 | 13.9 | 0.00 | 0.00 | 0.00 | 63 | 1021.0 |
| 20260505115219 | 62 | 239 | 10.4 | 12.2 | 0.00 | 0.00 | 0.00 | 63 | 1021.1 |
| 20260505114718 | 62 | 237 | 11.3 | 13.0 | 0.00 | 0.00 | 0.00 | 64 | 1021.1 |
| 20260505114218 | 62 | 235 | 10.4 | 12.2 | 0.00 | 0.00 | 0.00 | 66 | 1021.2 |
| 20260505113718 | 62 | 237 | 8.7 | 10.4 | 0.00 | 0.00 | 0.00 | 67 | 1021.1 |
| 20260505113218 | 62 | 243 | 7.8 | 10.4 | 0.00 | 0.00 | 0.00 | 68 | 1021.3 |
| 20260505112718 | 62 | 244 | 7.0 | 8.7 | 0.00 | 0.00 | 0.00 | 68 | 1021.2 |
| 20260505112218 | 62 | 241 | 6.1 | 7.8 | 0.00 | 0.00 | 0.00 | 68 | 1021.0 |
| 20260505111718 | 62 | 252 | 7.0 | 8.7 | 0.00 | 0.00 | 0.00 | 67 | 1021.3 |
| 20260505111218 | 63 | 244 | 7.8 | 8.7 | 0.00 | 0.00 | 0.00 | 66 | 1021.2 |
| 20260505110719 | 63 | 241 | 8.7 | 10.4 | 0.00 | 0.00 | 0.00 | 64 | 1021.1 |
| 20260505110219 | 64 | 238 | 7.8 | 10.4 | 0.00 | 0.00 | 0.00 | 62 | 1021.2 |
| 20260505102218 | 65 | 204 | 2.6 | 5.2 | 0.00 | 0.00 | 0.00 | 59 | 1020.4 |
| 20260505101218 | 65 | 220 | 2.6 | 5.2 | 0.00 | 0.00 | 0.00 | 59 | 1020.5 |
| 20260505100718 | 65 | 230 | 3.5 | 6.1 | 0.00 | 0.00 | 0.00 | 60 | 1020.6 |
| 20260505100219 | 65 | 184 | 2.6 | 5.2 | 0.00 | 0.00 | 0.00 | 60 | 1020.3 |
| 20260505095719 | 65 | 177 | 4.3 | 5.2 | 0.00 | 0.00 | 0.00 | 59 | 1020.4 |
| 20260505095219 | 65 | 179 | 4.3 | 7.0 | 0.00 | 0.00 | 0.00 | 58 | 1020.2 |
| 20260505094719 | 65 | 189 | 4.3 | 6.1 | 0.00 | 0.00 | 0.00 | 59 | 1020.5 |
| 20260505094218 | 65 | 189 | 4.3 | 5.2 | 0.00 | 0.00 | 0.00 | 58 | 1020.1 |
| 20260505093218 | 66 | 169 | 3.5 | 4.3 | 0.00 | 0.00 | 0.00 | 60 | 1019.9 |
| 20260505092719 | 66 | 185 | 4.3 | 5.2 | 0.00 | 0.00 | 0.00 | 58 | 1020.1 |
| 20260505092218 | 66 | 171 | 4.3 | 5.2 | 0.00 | 0.00 | 0.00 | 59 | 1019.8 |
| 20260505091718 | 66 | 191 | 2.6 | 4.3 | 0.00 | 0.00 | 0.00 | 60 | 1019.8 |
| 20260505091218 | 66 | 183 | 2.6 | 5.2 | 0.00 | 0.00 | 0.00 | 57 | 1019.8 |
| 20260505090718 | 66 | 176 | 3.5 | 4.3 | 0.00 | 0.00 | 0.00 | 57 | 1019.9 |
| 20260505085718 | 66 | 190 | 1.7 | 4.3 | 0.00 | 0.00 | 0.00 | 58 | 1019.8 |
| 20260505085219 | 66 | 193 | 0.9 | 2.6 | 0.00 | 0.00 | 0.00 | 57 | 1019.6 |
| 20260505084218 | 66 | 225 | 2.6 | 4.3 | 0.00 | 0.00 | 0.00 | 56 | 1019.6 |
| 20260505083718 | 67 | 202 | 2.6 | 4.3 | 0.00 | 0.00 | 0.00 | 56 | 1019.6 |
| 20260505083219 | 67 | 197 | 1.7 | 4.3 | 0.00 | 0.00 | 0.00 | 56 | 1019.6 |
| 20260505082718 | 67 | 191 | 2.6 | 4.3 | 0.00 | 0.00 | 0.00 | 55 | 1019.5 |
| 20260505082218 | 67 | 179 | 2.6 | 2.6 | 0.00 | 0.00 | 0.00 | 55 | 1019.3 |
| 20260505081718 | 67 | 185 | 2.6 | 4.3 | 0.00 | 0.00 | 0.00 | 55 | 1019.0 |
| 20260505081218 | 67 | 183 | 1.7 | 2.6 | 0.00 | 0.00 | 0.00 | 55 | 1019.0 |
| 20260505080719 | 67 | 174 | 2.6 | 4.3 | 0.00 | 0.00 | 0.00 | 54 | 1019.0 |
| 20260505080218 | 67 | 168 | 2.6 | 5.2 | 0.00 | 0.00 | 0.00 | 55 | 1018.9 |
| 20260505075719 | 67 | 180 | 5.2 | 7.0 | 0.00 | 0.00 | 0.00 | 54 | 1018.8 |
| 20260505075219 | 67 | 175 | 5.2 | 6.1 | 0.00 | 0.00 | 0.00 | 54 | 1018.6 |
| 20260505074218 | 67 | 164 | 5.2 | 6.1 | 0.00 | 0.00 | 0.00 | 53 | 1018.5 |
| 20260505073718 | 67 | 164 | 5.2 | 6.1 | 0.00 | 0.00 | 0.00 | 52 | 1018.6 |
| 20260505073218 | 67 | 167 | 5.2 | 7.0 | 0.00 | 0.00 | 0.00 | 51 | 1018.5 |
| 20260505072218 | 68 | 167 | 5.2 | 7.0 | 0.00 | 0.00 | 0.00 | 51 | 1018.6 |
| 20260505071218 | 68 | 167 | 5.2 | 7.8 | 0.00 | 0.00 | 0.00 | 49 | 1018.2 |
| 20260505070718 | 68 | 170 | 5.2 | 7.8 | 0.00 | 0.00 | 0.00 | 48 | 1018.1 |
| 20260505070218 | 69 | 171 | 7.0 | 8.7 | 0.00 | 0.00 | 0.00 | 48 | 1018.0 |
| 20260505065718 | 69 | 161 | 6.1 | 10.4 | 0.00 | 0.00 | 0.00 | 47 | 1018.0 |
| 20260505065218 | 69 | 167 | 6.1 | 10.4 | 0.00 | 0.00 | 0.00 | 46 | 1017.7 |
| 20260505064718 | 70 | 175 | 6.1 | 10.4 | 0.00 | 0.00 | 0.00 | 46 | 1017.8 |
| 20260505064218 | 70 | 161 | 6.1 | 8.7 | 0.00 | 0.00 | 0.00 | 45 | 1017.7 |
| 20260505063718 | 70 | 170 | 6.1 | 7.8 | 0.00 | 0.00 | 0.00 | 45 | 1017.7 |
| 20260505063218 | 70 | 162 | 6.1 | 7.8 | 0.00 | 0.00 | 0.00 | 45 | 1017.5 |
| 20260505062717 | 70 | 156 | 5.2 | 10.4 | 0.00 | 0.00 | 0.00 | 44 | 1017.5 |
| 20260505062218 | 70 | 168 | 6.1 | 7.8 | 0.00 | 0.00 | 0.00 | 44 | 1017.6 |
| 20260505061718 | 70 | 165 | 5.2 | 8.7 | 0.00 | 0.00 | 0.00 | 46 | 1017.5 |
| 20260505061218 | 70 | 144 | 5.2 | 10.4 | 0.00 | 0.00 | 0.00 | 47 | 1017.6 |
| 20260505060718 | 70 | 139 | 7.0 | 10.4 | 0.00 | 0.00 | 0.00 | 46 | 1017.5 |
| 20260505060218 | 70 | 157 | 7.0 | 10.4 | 0.00 | 0.00 | 0.00 | 46 | 1017.5 |
| 20260505055718 | 70 | 154 | 6.1 | 10.4 | 0.00 | 0.00 | 0.00 | 47 | 1017.4 |
| 20260505055218 | 70 | 130 | 5.2 | 8.7 | 0.00 | 0.00 | 0.00 | 45 | 1017.4 |
| 20260505054718 | 70 | 129 | 7.0 | 8.7 | 0.00 | 0.00 | 0.00 | 46 | 1017.4 |
| 20260505054217 | 70 | 127 | 5.2 | 7.0 | 0.00 | 0.00 | 0.00 | 49 | 1017.3 |
| 20260505053718 | 70 | 124 | 5.2 | 7.0 | 0.00 | 0.00 | 0.00 | 48 | 1017.5 |
| 20260505052718 | 69 | 123 | 4.3 | 7.0 | 0.00 | 0.00 | 0.00 | 48 | 1017.5 |
| 20260505051718 | 69 | 117 | 5.2 | 7.8 | 0.00 | 0.00 | 0.00 | 47 | 1017.2 |
| 20260505051218 | 69 | 119 | 7.0 | 8.7 | 0.00 | 0.00 | 0.00 | 46 | 1017.4 |
| 20260505050718 | 69 | 118 | 7.0 | 7.8 | 0.00 | 0.00 | 0.00 | 46 | 1017.2 |
| 20260505041717 | 70 | 124 | 7.0 | 8.7 | 0.00 | 0.00 | 0.00 | 45 | 1016.7 |
| 20260505041218 | 70 | 122 | 7.8 | 10.4 | 0.00 | 0.00 | 0.00 | 44 | 1016.6 |
| 20260505040718 | 71 | 118 | 7.0 | 8.7 | 0.00 | 0.00 | 0.00 | 44 | 1016.7 |
| 20260505040217 | 71 | 125 | 6.1 | 7.8 | 0.00 | 0.00 | 0.00 | 45 | 1016.6 |
| 20260505035718 | 71 | 120 | 5.2 | 7.0 | 0.00 | 0.00 | 0.00 | 47 | 1016.5 |
| 20260505034718 | 71 | 100 | 3.5 | 7.0 | 0.00 | 0.00 | 0.00 | 47 | 1016.6 |
| 20260505033718 | 72 | 101 | 7.0 | 10.4 | 0.00 | 0.00 | 0.00 | 45 | 1016.7 |
| 20260505033217 | 73 | 96 | 5.2 | 7.8 | 0.00 | 0.01 | 0.00 | 44 | 1016.8 |
| 20260505032718 | 74 | 113 | 4.3 | 7.0 | 0.00 | 0.01 | 0.00 | 42 | 1016.9 |
| 20260505032218 | 74 | 227 | 3.5 | 5.2 | 0.00 | 0.01 | 0.00 | 39 | 1016.8 |
| 20260505031718 | 73 | 242 | 5.2 | 11.3 | 0.00 | 0.02 | 0.00 | 39 | 1016.8 |
| 20260505031217 | 73 | 245 | 4.3 | 8.7 | 0.00 | 0.04 | 0.00 | 40 | 1016.9 |
| 20260505030718 | 72 | 255 | 4.3 | 8.7 | 0.00 | 0.05 | 0.00 | 41 | 1016.9 |
| 20260505030218 | 71 | 256 | 2.6 | 7.0 | 0.00 | 0.07 | 0.00 | 43 | 1017.0 |
| 20260505025717 | 70 | 275 | 7.8 | 12.2 | 0.00 | 0.08 | 0.00 | 42 | 1016.9 |
| 20260505024718 | 71 | 290 | 8.7 | 13.9 | 0.00 | 0.12 | 0.00 | 41 | 1016.9 |
| 20260505024218 | 71 | 267 | 9.6 | 13.9 | 0.00 | 0.12 | 0.00 | 41 | 1017.0 |
| 20260505023718 | 71 | 255 | 7.0 | 11.3 | 0.00 | 0.12 | 0.00 | 41 | 1017.2 |
| 20260505023218 | 71 | 247 | 10.4 | 13.9 | 0.00 | 0.13 | 0.00 | 42 | 1017.2 |
| 20260505022217 | 70 | 249 | 7.8 | 15.6 | 0.00 | 0.14 | 0.00 | 44 | 1017.2 |
| 20260505021717 | 70 | 272 | 13.9 | 19.1 | 0.00 | 0.15 | 0.00 | 43 | 1017.3 |
| 20260505020717 | 70 | 253 | 13.0 | 17.4 | 0.00 | 0.17 | 0.00 | 43 | 1017.5 |
| 20260505020217 | 70 | 276 | 8.7 | 12.2 | 0.00 | 0.18 | 0.00 | 43 | 1017.5 |
| 20260505015717 | 70 | 245 | 11.3 | 14.8 | 0.00 | 0.18 | 0.00 | 43 | 1017.6 |
| 20260505015217 | 70 | 235 | 11.3 | 15.6 | 0.00 | 0.18 | 0.00 | 43 | 1017.6 |
| 20260505014218 | 69 | 258 | 8.7 | 13.0 | 0.00 | 0.19 | 0.00 | 46 | 1017.7 |
| 20260505013718 | 69 | 282 | 8.7 | 13.0 | 0.00 | 0.20 | 0.00 | 46 | 1017.7 |
| 20260505013217 | 69 | 297 | 9.6 | 13.9 | 0.00 | 0.22 | 0.00 | 45 | 1017.7 |
| 20260505012717 | 69 | 269 | 10.4 | 14.8 | 0.00 | 0.23 | 0.00 | 45 | 1017.9 |
| 20260505012218 | 68 | 273 | 11.3 | 17.4 | 0.00 | 0.24 | 0.00 | 45 | 1018.0 |
| 20260505011217 | 68 | 286 | 6.1 | 12.2 | 0.00 | 0.25 | 0.00 | 48 | 1018.2 |
| 20260505010718 | 68 | 282 | 8.7 | 14.8 | 0.00 | 0.25 | 0.00 | 48 | 1018.3 |
| 20260505010217 | 67 | 281 | 7.8 | 15.6 | 0.00 | 0.26 | 0.00 | 48 | 1018.1 |
| 20260505005718 | 67 | 284 | 13.0 | 18.2 | 0.00 | 0.26 | 0.00 | 47 | 1018.1 |
| 20260505005217 | 67 | 262 | 10.4 | 17.4 | 0.00 | 0.26 | 0.00 | 49 | 1018.3 |
| 20260505004718 | 67 | 270 | 11.3 | 18.2 | 0.00 | 0.26 | 0.00 | 49 | 1018.3 |
| 20260505003718 | 67 | 274 | 14.8 | 19.1 | 0.00 | 0.26 | 0.00 | 48 | 1018.4 |
| 20260505003217 | 67 | 258 | 12.2 | 18.2 | 0.00 | 0.26 | 0.00 | 49 | 1018.6 |
| 20260505002717 | 67 | 267 | 13.0 | 17.4 | 0.00 | 0.26 | 0.00 | 50 | 1018.5 |
| 20260505002218 | 67 | 263 | 11.3 | 17.4 | 0.00 | 0.26 | 0.00 | 51 | 1018.5 |
| 20260505001717 | 66 | 260 | 11.3 | 17.4 | 0.00 | 0.26 | 0.00 | 52 | 1018.5 |
| 20260505000718 | 66 | 257 | 11.3 | 19.1 | 0.00 | 0.27 | 0.00 | 52 | 1018.7 |
| 20260505000218 | 66 | 284 | 9.6 | 15.6 | 0.00 | 0.27 | 0.00 | 52 | 1018.9 |
| 20260504235717 | 66 | 277 | 6.1 | 14.8 | 0.00 | 0.28 | 0.00 | 54 | 1018.7 |
| 20260504235217 | 65 | 260 | 7.8 | 13.0 | 0.00 | 0.28 | 0.00 | 54 | 1018.8 |
| 20260504234218 | 65 | 254 | 12.2 | 17.4 | 0.00 | 0.28 | 0.00 | 54 | 1018.9 |
| 20260504233719 | 65 | 261 | 15.6 | 20.9 | 0.00 | 0.28 | 0.00 | 54 | 1018.8 |
| 20260504233217 | 65 | 261 | 14.8 | 18.2 | 0.00 | 0.28 | 0.00 | 54 | 1018.8 |
| 20260504232717 | 65 | 267 | 12.2 | 19.1 | 0.00 | 0.28 | 0.00 | 54 | 1018.9 |
| 20260504232217 | 64 | 259 | 8.7 | 17.4 | 0.00 | 0.28 | 0.00 | 54 | 1018.8 |
| 20260504231717 | 64 | 271 | 8.7 | 15.6 | 0.00 | 0.28 | 0.00 | 55 | 1018.8 |
| 20260504231217 | 64 | 275 | 11.3 | 17.4 | 0.00 | 0.28 | 0.00 | 55 | 1018.7 |
| 20260504230717 | 64 | 272 | 12.2 | 17.4 | 0.00 | 0.28 | 0.00 | 54 | 1018.7 |
| 20260504225717 | 63 | 266 | 6.1 | 11.3 | 0.00 | 0.28 | 0.00 | 57 | 1019.0 |
| 20260504225217 | 63 | 272 | 8.7 | 15.6 | 0.00 | 0.28 | 0.00 | 56 | 1019.0 |
| 20260504224717 | 63 | 273 | 8.7 | 13.0 | 0.00 | 0.28 | 0.00 | 56 | 1018.7 |
| 20260504224217 | 63 | 279 | 5.2 | 13.9 | 0.00 | 0.28 | 0.00 | 58 | 1018.6 |
| 20260504223718 | 63 | 290 | 8.7 | 12.2 | 0.00 | 0.28 | 0.00 | 57 | 1018.7 |
| 20260504222717 | 62 | 328 | 4.3 | 12.2 | 0.00 | 0.28 | 0.00 | 60 | 1019.1 |
| 20260504222217 | 62 | 303 | 11.3 | 14.8 | 0.00 | 0.28 | 0.00 | 58 | 1018.7 |
| 20260504221717 | 62 | 311 | 11.3 | 13.9 | 0.00 | 0.28 | 0.00 | 57 | 1018.6 |
| 20260504221217 | 62 | 312 | 6.1 | 12.2 | 0.00 | 0.28 | 0.00 | 59 | 1018.6 |
| 20260504220217 | 62 | 299 | 7.8 | 13.0 | 0.00 | 0.28 | 0.00 | 58 | 1018.4 |
| 20260504215717 | 63 | 280 | 8.7 | 12.2 | 0.00 | 0.28 | 0.00 | 56 | 1018.4 |
| 20260504215217 | 64 | 291 | 7.8 | 10.4 | 0.00 | 0.28 | 0.00 | 53 | 1018.4 |
| 20260504214717 | 66 | 298 | 3.5 | 7.0 | 0.00 | 0.28 | 0.00 | 52 | 1018.5 |
| 20260504214217 | 65 | 264 | 2.6 | 5.2 | 0.00 | 0.28 | 0.00 | 55 | 1018.6 |
| 20260504213717 | 64 | 195 | 0.9 | 4.3 | 0.00 | 0.28 | 0.00 | 55 | 1018.3 |
| 20260504213217 | 64 | 225 | 4.3 | 7.0 | 0.00 | 0.28 | 0.00 | 55 | 1018.3 |
| 20260504212717 | 64 | 241 | 5.2 | 7.8 | 0.00 | 0.28 | 0.00 | 54 | 1018.2 |
| 20260504212216 | 63 | 326 | 2.6 | 5.2 | 0.00 | 0.28 | 0.00 | 55 | 1018.1 |
| 20260504211717 | 63 | 22 | 3.5 | 6.1 | 0.00 | 0.28 | 0.00 | 56 | 1018.2 |
| 20260504211217 | 62 | 222 | 5.2 | 11.3 | 0.00 | 0.28 | 0.00 | 58 | 1018.2 |
| 20260504210717 | 61 | 263 | 6.1 | 8.7 | 0.00 | 0.28 | 0.00 | 59 | 1017.7 |
| 20260504205717 | 60 | 287 | 10.4 | 13.9 | 0.00 | 0.28 | 0.00 | 59 | 1017.4 |
| 20260504205217 | 60 | 281 | 11.3 | 14.8 | 0.00 | 0.28 | 0.00 | 60 | 1017.2 |
| 20260504204717 | 60 | 286 | 12.2 | 15.6 | 0.00 | 0.28 | 0.00 | 60 | 1017.1 |
| 20260504204217 | 60 | 281 | 11.3 | 17.4 | 0.00 | 0.28 | 0.00 | 60 | 1017.0 |
| 20260504203717 | 60 | 281 | 13.9 | 18.2 | 0.00 | 0.28 | 0.00 | 60 | 1016.9 |
| 20260504203217 | 60 | 279 | 12.2 | 17.4 | 0.00 | 0.28 | 0.00 | 61 | 1016.8 |
| 20260504202217 | 60 | 278 | 13.9 | 18.2 | 0.00 | 0.28 | 0.00 | 61 | 1016.8 |
| 20260504201717 | 60 | 278 | 13.0 | 19.1 | 0.00 | 0.28 | 0.00 | 62 | 1016.8 |
| 20260504200717 | 60 | 278 | 13.9 | 17.4 | 0.00 | 0.28 | 0.00 | 62 | 1016.9 |
| 20260504200217 | 60 | 278 | 11.3 | 17.4 | 0.00 | 0.28 | 0.00 | 62 | 1016.9 |
| 20260504195716 | 60 | 279 | 12.2 | 14.8 | 0.00 | 0.28 | 0.00 | 62 | 1017.0 |
| 20260504195216 | 60 | 279 | 12.2 | 14.8 | 0.00 | 0.28 | 0.00 | 61 | 1016.8 |
| 20260504194717 | 60 | 276 | 10.4 | 13.0 | 0.00 | 0.28 | 0.00 | 61 | 1016.7 |
| 20260504194217 | 60 | 277 | 10.4 | 14.8 | 0.00 | 0.28 | 0.00 | 61 | 1016.8 |
| 20260504193717 | 61 | 275 | 10.4 | 13.9 | 0.00 | 0.28 | 0.00 | 61 | 1016.8 |
| 20260504193217 | 61 | 271 | 8.7 | 11.3 | 0.00 | 0.28 | 0.00 | 61 | 1016.8 |
| 20260504192717 | 61 | 272 | 8.7 | 11.3 | 0.00 | 0.28 | 0.00 | 60 | 1017.0 |
| 20260504192217 | 61 | 269 | 8.7 | 11.3 | 0.00 | 0.28 | 0.00 | 60 | 1016.9 |
| 20260504191717 | 61 | 266 | 9.6 | 12.2 | 0.00 | 0.28 | 0.00 | 59 | 1017.1 |
| 20260504191217 | 61 | 268 | 9.6 | 13.0 | 0.00 | 0.28 | 0.00 | 60 | 1016.7 |
| 20260504190717 | 61 | 263 | 11.3 | 14.8 | 0.00 | 0.28 | 0.00 | 60 | 1016.6 |
| 20260504190217 | 61 | 255 | 12.2 | 15.6 | 0.00 | 0.28 | 0.00 | 60 | 1016.8 |
| 20260504185717 | 62 | 248 | 12.2 | 17.4 | 0.00 | 0.28 | 0.00 | 59 | 1016.6 |
| 20260504185217 | 62 | 253 | 15.6 | 18.2 | 0.00 | 0.28 | 0.00 | 59 | 1016.4 |
| 20260504184717 | 62 | 246 | 15.6 | 20.9 | 0.00 | 0.28 | 0.00 | 59 | 1016.3 |
| 20260504184217 | 62 | 252 | 14.8 | 20.0 | 0.00 | 0.28 | 0.00 | 59 | 1016.0 |
| 20260504183716 | 62 | 250 | 15.6 | 20.9 | 0.00 | 0.28 | 0.00 | 59 | 1016.0 |
| 20260504183217 | 62 | 255 | 12.2 | 19.1 | 0.00 | 0.28 | 0.00 | 59 | 1016.0 |
| 20260504182717 | 62 | 257 | 13.9 | 20.9 | 0.00 | 0.28 | 0.00 | 59 | 1016.1 |
| 20260504182217 | 62 | 255 | 13.9 | 20.0 | 0.00 | 0.28 | 0.00 | 59 | 1016.1 |
| 20260504181717 | 62 | 250 | 13.0 | 20.9 | 0.00 | 0.28 | 0.00 | 59 | 1015.9 |
| 20260504181217 | 62 | 259 | 13.9 | 20.0 | 0.00 | 0.28 | 0.00 | 59 | 1015.8 |
| 20260504180716 | 62 | 254 | 14.8 | 20.9 | 0.00 | 0.28 | 0.00 | 59 | 1015.9 |
| 20260504180217 | 62 | 253 | 15.6 | 20.9 | 0.00 | 0.28 | 0.00 | 59 | 1016.0 |
| 20260504175716 | 62 | 250 | 13.9 | 21.7 | 0.00 | 0.28 | 0.00 | 59 | 1015.9 |
| 20260504175217 | 62 | 258 | 14.8 | 19.1 | 0.00 | 0.28 | 0.00 | 59 | 1015.9 |
| 20260504174217 | 62 | 262 | 14.8 | 20.9 | 0.00 | 0.28 | 0.00 | 58 | 1015.7 |
| 20260504173717 | 62 | 258 | 13.9 | 19.1 | 0.00 | 0.28 | 0.00 | 59 | 1015.9 |
| 20260504173217 | 62 | 258 | 13.0 | 20.9 | 0.00 | 0.28 | 0.00 | 59 | 1015.8 |
| 20260504172717 | 62 | 263 | 15.6 | 20.9 | 0.00 | 0.28 | 0.00 | 59 | 1015.9 |
| 20260504172217 | 62 | 259 | 14.8 | 18.2 | 0.00 | 0.28 | 0.00 | 60 | 1015.7 |
| 20260504171717 | 62 | 259 | 12.2 | 18.2 | 0.00 | 0.28 | 0.00 | 60 | 1015.9 |
| 20260504171216 | 63 | 259 | 13.0 | 20.9 | 0.00 | 0.28 | 0.00 | 60 | 1015.9 |
| 20260504170717 | 63 | 255 | 13.9 | 20.9 | 0.00 | 0.28 | 0.00 | 60 | 1015.7 |
| 20260504170216 | 63 | 253 | 12.2 | 17.4 | 0.00 | 0.28 | 0.00 | 60 | 1015.7 |
| 20260504150716 | 64 | 252 | 11.3 | 14.8 | 0.00 | 0.28 | 0.00 | 63 | 1016.0 |
| 20260504150216 | 64 | 246 | 13.0 | 17.4 | 0.00 | 0.28 | 0.00 | 63 | 1015.9 |
| 20260504140716 | 64 | 243 | 9.6 | 13.0 | 0.00 | 0.28 | 0.00 | 68 | 1015.7 |
| 20260504140216 | 64 | 247 | 10.4 | 14.8 | 0.00 | 0.28 | 0.00 | 69 | 1015.7 |
| 20260504130716 | 65 | 232 | 7.8 | 10.4 | 0.00 | 0.28 | 0.28 | 81 | 1015.9 |
| 20260504130216 | 65 | 242 | 7.8 | 11.3 | 0.00 | 0.28 | 0.28 | 81 | 1015.8 |